RH
90 88 98 100 100 99 100 100 99 96 95 97 99 98 98 98 98 99 96 95 86 89 87 90 85 84 80 77 83 89 92 94 94 97 98 94 89 80
92 94 100 99 100 99 100 100 100 100 99 98 98 97 92 89 92 88 92 87 82 77 77 79 83 83 82 79 76 88 91 92 88 95 96 96 98 93
99 95 100 100 100 100 100 99 100 99 99 99 99 98 94 88 92 89 93 81 58 40 32 31 34 40 50 73 80 95 88 96 77 96 99 95 91 96
100 100 99 99 99 100 100 100 100 100 99 99 99 95 89 87 71 47 31 28 24 20 15 12 12 14 21 28 44 71 86 82 88 100 100 94 99 96
100 100 100 100 100 100 99 100 99 100 99 94 75 54 34 26 18 10 7 7 7 6 6 6 7 8 9 10 11 17 97 88 100 99 99 99 100 97
83 88 74 63 84 90 79 64 51 43 30 21 13 8 8 7 6 4 4 3 3 2 2 2 3 4 5 7 11 18 68 86 95 100 94 99 99 100
30 27 22 17 12 11 9 8 8 7 6 5 4 4 4 3 3 3 3 3 3 2 2 2 2 3 4 6 8 18 38 93 99 99 99 99 100 99
8 8 7 6 6 5 5 5 5 4 4 5 5 4 4 3 3 3 2 2 2 2 2 1 2 3 3 7 13 26 47 69 94 100 100 98 98 99
6 5 5 5 5 5 5 6 6 7 7 6 6 4 3 2 2 2 1 1 1 2 2 2 3 3 5 8 20 48 65 100 99 98 98 98 99 99
6 6 6 6 7 9 11 12 11 10 7 5 4 3 2 2 2 2 2 2 2 3 5 5 8 10 15 59 68 82 97 93 85 97 98 98 97 97
6 7 10 13 14 13 15 18 18 13 8 5 3 2 2 3 3 3 4 5 6 7 10 12 15 24 19 87 74 68 87 83 97 92 95 96 96 98
13 17 19 19 19 18 20 23 19 11 7 3 3 3 5 5 5 7 10 12 13 12 12 18 30 56 32 38 79 75 77 81 96 97 100 98 99 96
21 23 25 25 20 21 22 17 11 8 4 3 3 6 9 7 9 12 15 18 18 16 22 61 85 81 70 63 74 84 68 91 96 96 95 96 98 96
32 35 28 24 18 16 14 10 7 5 4 4 6 10 14 8 10 15 20 30 40 36 54 80 86 78 77 69 86 86 91 93 96 96 97 97 97 97
44 31 27 21 14 12 10 8 6 4 4 6 10 17 19 10 13 20 40 53 78 84 81 88 83 72 84 93 90 94 93 96 95 97 96 98 96 95
43 31 28 19 13 10 9 7 6 5 6 7 15 21 24 13 14 30 55 73 93 100 97 95 93 86 86 88 88 96 96 95 96 97 97 97 96 46
34 26 20 14 11 10 9 7 6 7 10 16 24 29 30 18 20 37 66 78 84 97 98 89 85 89 92 83 90 97 96 94 93 96 96 94 62 46
39 25 16 13 10 10 9 8 8 10 18 31 33 32 31 21 26 44 74 84 77 77 79 79 91 90 86 84 95 96 95 96 94 96 95 45 48 73
37 23 16 13 12 12 10 10 11 16 27 38 39 36 28 28 37 44 71 84 89 87 85 87 89 92 85 86 95 95 90 96 96 96 81 55 93 95
45 19 16 13 13 13 11 11 15 24 37 42 44 39 36 40 49 50 77 89 93 95 95 91 89 90 86 92 94 92 89 100 97 57 45 91 97 97
23 18 15 16 15 15 14 16 24 38 45 47 49 48 50 54 56 63 85 95 97 98 95 91 92 92 92 94 94 95 96 98 94 77 96 96 96 95
20 18 19 18 18 18 22 27 39 50 57 59 57 60 61 60 62 77 91 97 98 99 97 97 96 95 95 94 95 96 96 96 94 95 96 96 96 94
24 33 23 19 20 24 31 38 52 62 69 67 65 65 67 71 83 87 93 98 99 100 98 99 98 99 95 94 94 94 95 96 96 96 96 95 95 95
Wind_Speed
35 35 30 29 30 32 31 32 32 32 31 26 30 27 32 35 33 36 37 34 37 38 40 41 41 41 40 39 36 31 33 35 36 38 38 39 38 39
34 28 32 28 31 31 31 29 29 32 34 33 35 34 33 35 35 42 40 42 42 42 43 44 45 45 44 42 41 37 35 38 41 38 40 41 43 43
25 31 27 29 27 26 27 27 31 33 34 37 36 36 37 40 42 47 45 49 49 49 48 49 49 49 48 46 44 43 43 41 42 40 44 42 44 45
22 26 18 26 22 22 22 26 27 30 35 40 41 43 46 48 49 51 52 53 55 55 55 55 54 53 53 50 49 50 49 49 45 49 46 42 44 44
18 17 21 18 22 25 24 27 31 35 41 45 47 49 51 53 55 55 56 56 57 57 57 56 55 54 55 53 52 51 49 50 50 52 49 50 45 47
18 19 22 22 24 28 32 34 37 40 43 47 50 52 53 55 56 57 58 57 58 56 56 55 53 52 53 52 51 49 50 52 51 48 50 52 49 51
21 23 25 27 29 31 33 36 39 41 44 47 49 51 52 52 54 56 59 61 60 60 58 55 50 50 49 48 49 49 50 50 49 49 51 52 54 48
22 24 26 27 29 32 34 36 38 41 43 47 49 51 53 53 55 58 60 62 64 58 58 57 49 46 44 43 45 49 48 48 53 47 49 52 45 44
21 24 26 27 29 31 33 35 38 42 45 48 50 51 53 53 55 57 57 57 55 54 51 53 46 45 38 35 41 45 48 48 45 46 44 47 44 44
22 24 26 28 30 32 35 37 39 41 43 45 48 48 49 49 49 50 50 50 50 45 41 44 38 37 31 29 29 31 37 36 48 40 43 43 40 32
23 25 27 30 33 35 37 39 41 41 41 42 42 42 42 42 42 45 44 45 45 40 34 37 31 30 27 21 23 28 31 31 30 32 33 37 34 26
25 28 29 31 34 37 40 42 43 42 42 39 37 36 36 37 37 37 39 40 40 37 30 30 25 26 26 22 24 26 32 25 26 21 24 29 28 25
26 29 32 34 35 37 40 41 42 43 41 40 37 33 32 31 33 33 33 35 34 31 27 24 24 22 20 24 25 23 24 23 17 15 23 26 26 26
29 31 31 33 35 37 38 40 41 42 41 39 36 32 32 30 28 28 28 27 26 26 22 21 25 23 22 26 26 25 20 19 16 17 18 18 22 25
29 29 31 33 34 36 37 38 39 40 39 37 35 32 32 31 29 28 26 22 18 18 19 21 21 21 22 22 24 23 19 18 13 14 16 20 22 24
30 30 31 33 34 34 35 36 37 37 37 35 33 32 30 28 27 27 23 18 15 14 14 17 17 20 21 19 22 18 15 14 13 11 15 18 25 21
31 32 33 34 34 35 35 36 35 34 34 34 33 31 28 27 25 25 22 19 15 11 11 14 16 16 16 14 17 14 11 11 10 12 16 22 19 19
32 32 32 33 34 35 36 36 34 34 34 33 30 28 27 25 24 23 21 19 17 17 15 16 15 15 13 13 14 11 10 10 7 17 22 18 18 18
33 33 33 34 34 35 36 35 32 31 32 31 27 25 25 24 24 22 20 18 17 15 15 15 14 13 12 13 11 10 9 8 10 23 21 22 22 19
35 33 33 33 34 35 35 34 31 29 29 27 25 23 23 24 22 21 19 18 17 15 13 13 13 11 11 12 13 11 7 8 14 21 22 24 20 17
32 31 30 31 32 33 32 31 30 28 27 24 23 22 21 22 20 20 18 17 17 15 14 14 13 11 11 10 11 10 7 13 24 27 24 22 20 17
30 30 29 30 31 32 30 28 28 27 24 22 21 21 21 20 19 17 17 15 16 14 13 13 12 10 10 9 11 12 9 15 25 25 24 25 23 22
29 29 29 30 31 31 30 28 28 25 22 21 21 21 20 19 17 16 16 15 15 13 12 12 10 8 9 9 11 14 11 11 19 18 25 27 24 22
Wind_Direction
264 268 266 255 262 268 265 273 273 273 272 270 274 272 273 271 278 283 279 279 280 283 286 282 282 283 283 282 280 273 275 278 275 273 273 274 276 281
263 267 256 261 262 264 270 263 263 268 276 281 280 280 268 268 275 281 281 282 282 282 281 280 280 279 278 276 275 272 276 281 284 277 274 278 280 279
252 261 267 265 256 260 259 269 268 267 273 278 280 286 285 281 280 283 283 285 286 284 283 281 279 278 277 275 272 270 272 270 275 277 272 279 278 278
240 243 269 248 259 264 265 265 272 271 275 279 281 284 285 284 286 286 286 286 286 286 285 284 282 279 277 273 269 267 264 266 265 271 269 276 271 269
262 268 270 263 269 268 265 270 272 270 277 281 281 283 285 288 287 287 288 287 287 287 285 284 284 282 280 277 274 271 261 258 261 267 269 272 271 268
255 259 268 270 264 263 267 273 276 277 279 282 284 286 288 288 289 291 290 290 290 289 288 287 286 282 277 273 270 266 259 260 258 262 268 271 263 268
271 273 273 274 275 278 279 281 282 284 285 286 287 290 290 291 293 293 292 293 292 290 289 287 284 280 277 275 271 267 260 252 259 262 266 262 263 265
275 278 279 281 285 285 286 287 290 291 293 294 295 296 295 296 295 295 294 293 292 291 293 293 291 285 279 270 265 260 262 261 255 257 260 260 270 272
278 281 286 289 288 291 295 297 298 299 298 299 300 298 297 296 297 297 295 294 295 297 298 296 298 293 285 270 260 259 260 258 260 257 262 259 257 265
290 290 292 298 300 300 300 302 303 303 301 299 299 300 299 299 298 297 297 297 295 298 301 302 303 300 292 273 268 270 273 271 254 265 259 253 260 263
293 298 301 301 301 304 305 303 299 297 296 298 300 301 301 301 301 298 299 298 300 303 307 299 302 299 285 296 287 276 285 280 282 270 262 253 254 264
305 306 305 305 307 307 306 305 306 308 307 305 304 303 302 301 298 295 297 298 300 302 302 299 304 307 299 285 297 272 285 285 277 262 269 258 260 265
307 309 311 311 310 310 312 312 311 310 310 309 307 305 304 303 297 294 293 294 296 298 306 306 314 314 298 296 294 294 283 275 278 265 245 244 246 247
314 314 313 314 315 314 314 313 312 311 310 309 307 306 305 303 295 295 293 292 296 298 302 294 296 306 299 300 299 293 278 271 273 271 264 249 234 220
314 314 315 315 314 313 313 312 312 310 308 306 304 304 306 306 305 305 301 297 298 295 291 294 283 294 296 300 302 293 282 271 261 252 241 235 221 195
317 316 314 313 313 313 313 313 311 307 304 300 299 301 304 304 304 305 300 290 294 292 296 304 299 291 293 295 298 287 282 281 271 253 217 224 187 183
317 316 316 316 316 315 313 312 310 306 302 301 303 303 303 303 303 301 295 293 284 287 288 301 311 301 294 291 290 285 292 287 269 219 203 167 170 185
316 315 315 314 314 314 314 313 311 308 305 305 305 303 302 301 299 301 294 293 282 278 282 289 305 313 303 291 290 293 290 279 251 202 173 180 179 179
314 312 312 313 313 314 314 313 310 306 305 306 304 301 299 299 298 300 292 286 286 282 282 287 294 309 303 290 278 271 283 247 217 172 177 184 176 174
310 308 309 310 311 311 312 312 309 305 304 301 297 297 297 298 299 299 290 284 287 278 277 282 287 296 294 274 259 253 263 238 197 173 184 184 178 176
303 304 306 308 308 310 312 310 308 305 303 298 296 297 298 299 301 297 288 285 287 282 272 268 277 286 282 272 262 241 256 212 190 184 185 179 167 164
302 304 307 308 308 310 311 310 308 306 302 297 297 300 301 300 300 292 285 283 282 282 278 267 270 275 279 270 254 233 227 213 199 185 179 171 168 152
303 304 306 306 307 309 312 312 310 308 302 298 299 301 300 297 295 288 283 278 276 275 275 266 264 267 261 253 238 218 208 203 186 174 180 173 166 169